Powrót do katalogu

DRTS

AktywnyŁącznośćGEO
NORAD 27516·PAYLOAD·🇯🇵 Japan

Wystrzelony Sep 10, 2002 z Tanegashima Space Center

Loading…

TLE

ŚwieżeSource: Space-Track

Epoka: Sep 14, 2026, 03:31 UTC

1 27516U 02042B   26257.14707039 -.00000181  00000-0  00000-0 0  9993
2 27516  11.4243  41.0863 0019422 225.6608 137.4467  0.99275178 46478

Śledź DRTS w czasie rzeczywistym z AllMySat

Download on the App Store